Terminal Aerodrome Forecast
Issued by NWS Cleveland, OH

Home | Current Version | Previous Version | Text Only | Print | Product List | Glossary On
Versions: 1 2 3 4 5 6 7 8 9 10 11 12 13 14 15 16 17 18 19 20 21 22 23 24 25
983
FTUS41 KCLE 252133 AAC
TAFERI
TAF AMD
KERI 252133Z 2522/2618 06015G25KT P6SM BKN006 OVC060
      TEMPO 2522/2524 OVC060
     FM260100 06011KT 5SM HZ BKN007
     FM261000 10014KT 6SM BR BKN008 OVC015
     FM261700 15015KT P6SM VCSH SCT008 OVC020=

USA.gov is the U.S. government's official web portal to all federal, state and local government web resources and services.